Location: Bright Sky Observatory
(40.7821°N, 74.2425°W)
Time: 19:53:01
(UTC-04:00)

Amateur Radio Satellites - All Passes

Search period start: 31 March 2015 19:23
Search period end: 01 April 2015 19:23
Location: Bright Sky Observatory, 40.7821°N, 74.2425°W

Satellite Date Start Highest point End Downlink Frequencies (MHz)
Time Altitude Azimuth
MOZHAYETS 4 31 Mar 19:23:34 19:25:06 11° 298° (WNW) 19:26:23
PRISM 31 Mar 19:25:02 19:29:08 53° 100° (E) 19:33:12 437.425
CUBESAT XI-V 31 Mar 19:37:39 19:42:18 84° 284° (WNW) 19:46:54 437.345
M-CUBED/EXP-1 PRIME 31 Mar 19:37:40 19:41:45 27° 297° (WNW) 19:45:41 437.505
CUTE-I 31 Mar 19:42:25 19:46:21 20° 269° (W) 19:50:08 437.470
Cubesat XI-IV 31 Mar 19:43:26 19:47:19 19° 269° (W) 19:51:00 437.490
STRAND 1 31 Mar 19:45:28 19:50:31 57° 101° (E) 19:55:32 437.568
GONETS M04 31 Mar 19:46:36 19:55:18 86° 97° (E) 20:04:06
SEEDS 31 Mar 19:56:52 19:59:15 15° 66° (ENE) 20:01:48 437.485
AIST 2 31 Mar 19:59:42 20:03:58 73° 240° (WSW) 20:08:07 435.215
BRITE-PL 31 Mar 20:00:40 20:04:56 38° 72° (ENE) 20:08:59 437.365/2234.400
SO-50 31 Mar 20:10:29 20:14:09 21° 318° (NW) 20:17:47 436.795
BEESAT 2 31 Mar 20:12:34 20:15:28 18° 248° (WSW) 20:18:14 435.950
DOVE 4 31 Mar 20:12:44 20:15:56 21° 69° (ENE) 20:19:10 437.250
COMPASS 1 31 Mar 20:14:52 20:17:50 19° 68° (ENE) 20:20:56 437.405
Oscar 11 31 Mar 20:30:52 20:32:41 13° 64° (ENE) 20:34:42 145.826/435.025
CUSAT 1 31 Mar 20:30:54 20:33:06 22° 96° (E) 20:35:13 437.405
GOMX 1 31 Mar 20:34:38 20:38:59 57° 75° (ENE) 20:43:09 467.674
HO-68 31 Mar 20:36:36 20:43:42 72° 71° (ENE) 20:50:54 435.675
RS-15 31 Mar 20:43:43 20:54:13 49° 315° (NW) 21:04:55 29.354- 29.394
DELFI C3 31 Mar 20:46:21 20:48:15 13° 66° (ENE) 20:50:20 145.870
CANX-2 31 Mar 20:51:24 20:55:37 81° 78° (ENE) 20:59:55 2200.000
UWE-3 31 Mar 20:56:51 20:59:05 15° 66° (ENE) 21:01:29 435.000/436.395/437.385
ZACube-1 31 Mar 21:00:15 21:02:03 13° 65° (ENE) 21:04:03 437.345
PRISM 31 Mar 21:02:05 21:04:13 13° 296° (WNW) 21:06:10 437.425
CUTE 1.7 + AOD 2 31 Mar 21:04:57 21:09:11 79° 258° (WSW) 21:13:28 437.475
CUBEBUG 2 31 Mar 21:06:08 21:09:19 22° 69° (ENE) 21:12:36 437.445
CINEMA 3 31 Mar 21:10:10 21:14:09 46° 73° (ENE) 21:18:09 145.822/145.860
AAUSAT CUBESAT 2 31 Mar 21:19:47 21:23:57 90° 167° (SSE) 21:28:11 437.432
ISS 31 Mar 21:20:34 21:22:58 19° 133° (SE) 21:25:25 145.825
STRAND 1 31 Mar 21:25:52 21:29:19 18° 296° (WNW) 21:32:35 437.568
SEEDS 31 Mar 21:30:39 21:34:43 47° 261° (W) 21:38:50 437.485
HUMSAT D 31 Mar 21:30:47 21:32:50 14° 66° (ENE) 21:35:04 437.325/437.525
DANDE 31 Mar 21:35:22 21:38:10 39° 282° (WNW) 21:40:40 436.750
UKube-1 31 Mar 21:36:22 21:39:53 25° 69° (ENE) 21:43:30 .
BRITE-PL 31 Mar 21:40:18 21:43:39 19° 267° (W) 21:46:42 437.365/2234.400
GONETS M04 31 Mar 21:47:17 21:53:32 20° 299° (WNW) 21:59:23
50 SAT 31 Mar 21:47:53 21:49:44 13° 66° (ENE) 21:51:47 437.505
COMPASS 1 31 Mar 21:49:28 21:53:20 35° 263° (W) 21:57:12 437.405
DX 1 31 Mar 21:49:29 21:53:29 37° 71° (ENE) 21:57:31 434.975-435.025
DOVE 4 31 Mar 21:49:47 21:53:37 30° 264° (W) 21:57:19 437.250
Oscar 11 31 Mar 22:04:09 22:08:25 61° 260° (W) 22:12:44 145.826/435.025
GOMX 1 31 Mar 22:15:47 22:17:32 12° 270° (W) 22:19:01 467.674
DELFI C3 31 Mar 22:19:04 22:23:02 51° 261° (W) 22:27:02 145.870
FUNcube-1 31 Mar 22:19:56 22:24:04 82° 258° (WSW) 22:28:16 145.935
HO-68 31 Mar 22:26:55 22:32:11 21° 270° (W) 22:37:10 435.675
UWE-3 31 Mar 22:31:18 22:35:17 46° 261° (W) 22:39:19 435.000/436.395/437.385
CUBEBUG 1 31 Mar 22:33:04 22:36:21 21° 68° (ENE) 22:39:45 437.445
ZACube-1 31 Mar 22:33:57 22:38:01 54° 260° (W) 22:42:07 437.345
VELOX 1 31 Mar 22:39:30 22:43:50 55° 73° (ENE) 22:48:11 145.980
CUBEBUG 2 31 Mar 22:42:17 22:45:56 29° 265° (W) 22:49:33 437.445
PCSat 31 Mar 22:44:52 22:49:27 28° 48° (NE) 22:54:06 145.827
AISAT 31 Mar 22:45:16 22:49:39 66° 75° (ENE) 22:54:05 437.250
CINEMA 3 31 Mar 22:49:29 22:51:43 14° 270° (W) 22:53:44 145.822/145.860
UNISAT 6 31 Mar 22:52:52 22:56:45 27° 95° (E) 23:00:44 437.425
ISS 31 Mar 22:56:00 22:59:10 46° 329° (NNW) 23:02:19 145.825
QB50P1 31 Mar 23:00:55 23:03:18 15° 91° (E) 23:05:52 145.935-145.965
DUCHIFAT 1 31 Mar 23:01:18 23:03:36 15° 90° (E) 23:06:05 145.980
TIGRISAT 31 Mar 23:01:42 23:05:49 32° 96° (E) 23:10:01 435.000
RS-15 31 Mar 23:02:14 23:10:18 22° 347° (NNW) 23:18:26 29.354- 29.394
HUMSAT D 31 Mar 23:04:16 23:08:15 49° 261° (W) 23:12:16 437.325/437.525
UKube-1 31 Mar 23:12:12 23:15:58 28° 264° (W) 23:19:43 .
QB50P2 31 Mar 23:15:56 23:19:17 23° 94° (E) 23:22:42 145.880/145.840
50 SAT 31 Mar 23:20:32 23:24:18 46° 261° (W) 23:28:07 437.505
ESTCUBE 1 31 Mar 23:23:26 23:27:59 84° 75° (ENE) 23:32:33 437.505/2401.250
DX 1 31 Mar 23:26:40 23:29:53 19° 267° (W) 23:33:00 434.975-435.025
BUGSAT 1 31 Mar 23:29:28 23:32:31 21° 94° (E) 23:35:40 437.445
ANTELSAT 31 Mar 23:33:03 23:37:40 72° 101° (E) 23:42:22 437.575/2403.000
POPSAT HIP 1 31 Mar 23:43:35 23:47:39 45° 99° (E) 23:51:44 437.405
YUBILEINY 31 Mar 23:43:37 23:50:46 28° 66° (ENE) 23:58:06 435.215
TISAT 1 31 Mar 23:47:21 23:50:57 28° 70° (ENE) 23:54:37 437.305
NANOSAT C BR1 31 Mar 23:53:00 23:57:10 59° 100° (E) 00:01:20 145.865
POLYITAN 1 31 Mar 23:59:37 00:03:52 72° 102° (ESE) 00:08:07 437.675
SPROUT 01 Apr 00:06:51 00:11:02 56° 75° (ENE) 00:15:15 437.525
CUBEBUG 1 01 Apr 00:08:30 00:12:33 35° 263° (W) 00:16:34 437.445
SWISSCUBE 01 Apr 00:13:01 00:14:27 11° 61° (ENE) 00:16:08 437.505
BEESAT 01 Apr 00:15:42 00:16:56 11° 61° (ENE) 00:18:27 436.000
VELOX 1 01 Apr 00:18:29 00:20:49 13° 270° (W) 00:22:55 145.980
AISAT 01 Apr 00:25:21 00:26:48 11° 272° (W) 00:27:59 437.250
PCSat 01 Apr 00:27:55 00:33:06 46° 247° (WSW) 00:38:13 145.827
UNISAT 6 01 Apr 00:29:29 00:33:32 30° 290° (WNW) 00:37:34 437.425
ISS 01 Apr 00:34:14 00:36:11 15° 348° (NNW) 00:38:06 145.825
QB50P1 01 Apr 00:35:25 00:39:28 44° 287° (WNW) 00:43:30 145.935-145.965
DUCHIFAT 1 01 Apr 00:35:41 00:39:44 45° 288° (WNW) 00:43:45 145.980
TIGRISAT 01 Apr 00:38:39 00:42:27 25° 291° (WNW) 00:46:14 435.000
QB50P2 01 Apr 00:51:30 00:55:14 30° 290° (WNW) 00:58:54 145.880/145.840
ITUPSAT 1 01 Apr 01:01:01 01:05:11 30° 69° (ENE) 01:09:25 437.325
BUGSAT 1 01 Apr 01:04:33 01:08:03 28° 290° (WNW) 01:11:31 437.445
ANTELSAT 01 Apr 01:11:54 01:13:59 13° 296° (WNW) 01:15:50 437.575/2403.000
RS-15 01 Apr 01:19:16 01:28:02 25° 22° (NNE) 01:37:19 29.354- 29.394
POPSAT HIP 1 01 Apr 01:20:34 01:23:14 16° 294° (WNW) 01:25:43 437.405
SO-50 01 Apr 01:22:54 01:23:20 10° 31° (NNE) 01:23:57 436.795
TISAT 1 01 Apr 01:23:21 01:26:47 23° 266° (W) 01:30:07 437.305
NANOSAT C BR1 01 Apr 01:30:38 01:32:36 13° 295° (WNW) 01:34:23 145.865
POLYITAN 1 01 Apr 01:38:11 01:39:17 11° 297° (WNW) 01:40:09 437.675
YUBILEINY 01 Apr 01:39:39 01:48:23 65° 267° (W) 01:56:57 435.215
SPROUT 01 Apr 01:45:41 01:47:34 12° 271° (W) 01:49:14 437.525
SWISSCUBE 01 Apr 01:46:53 01:51:42 85° 259° (W) 01:56:32 437.505
BEESAT 01 Apr 01:49:22 01:54:10 87° 258° (WSW) 01:59:00 436.000
ITAMSAT 1 01 Apr 01:59:10 02:00:31 11° 87° (E) 02:02:14 435.822/435.867
ISS 01 Apr 02:11:55 02:13:36 13° 8° (N) 02:15:18 145.825
Oscar 19 01 Apr 02:23:52 02:29:03 68° 102° (ESE) 02:34:13 437.125/150
ITUPSAT 1 01 Apr 02:38:53 02:43:04 28° 265° (W) 02:47:13 437.325
O/OREOS (USA 219) 01 Apr 02:42:55 02:45:02 13° 100° (E) 02:47:23 437.305
KKS-1 01 Apr 02:50:03 02:54:29 77° 76° (ENE) 02:58:55 437.445
SO-50 01 Apr 03:00:21 03:05:10 48° 52° (NE) 03:09:56 436.795
Gurwin Techsat 1B 01 Apr 03:01:30 03:06:28 39° 97° (E) 03:11:26 435.225
STARS 01 Apr 03:15:29 03:19:52 88° 263° (W) 03:24:16 437.465
HORYU 2 01 Apr 03:21:00 03:22:35 12° 89° (E) 03:24:26 437.375
VERMONT LUNAR 01 Apr 03:21:43 03:22:17 10° 146° (SSE) 03:22:58 437.305
RS-15 01 Apr 03:32:00 03:43:22 64° 51° (NE) 03:55:18 29.354- 29.394
ITAMSAT 1 01 Apr 03:35:35 03:40:47 82° 285° (WNW) 03:45:58 435.822/435.867
YUBILEINY 01 Apr 03:41:31 03:43:39 11° 285° (WNW) 03:44:59 435.215
AO-7 01 Apr 03:43:57 03:49:28 20° 90° (E) 03:55:23 29.400- 29.500
ISS 01 Apr 03:47:45 03:50:44 33° 28° (NNE) 03:53:44 145.825
AIST 1 01 Apr 03:54:05 03:58:19 49° 94° (E) 04:02:35
JAS-2 01 Apr 04:00:56 04:06:43 24° 87° (E) 04:12:21 435.910
Oscar 19 01 Apr 04:04:45 04:07:54 16° 297° (WNW) 04:10:52 437.125/150
O/OREOS (USA 219) 01 Apr 04:19:29 04:24:00 58° 295° (WNW) 04:28:34 437.305
PHONESAT 2.4 01 Apr 04:24:39 04:26:31 14° 148° (SSE) 04:28:28 2401.200-2431.200
AUBIESAT-1 01 Apr 04:24:55 04:28:00 21° 61° (ENE) 04:31:24 437.475
SO-50 01 Apr 04:41:37 04:45:26 22° 248° (WSW) 04:49:05 436.795
Gurwin Techsat 1B 01 Apr 04:41:51 04:46:17 27° 293° (WNW) 04:50:36 435.225
MOZHAYETS 4 01 Apr 04:45:15 04:49:50 73° 76° (ENE) 04:54:31
M-CUBED/EXP-1 PRIME 01 Apr 04:50:56 04:54:48 42° 66° (ENE) 04:59:03 437.505
HORYU 2 01 Apr 04:55:16 04:59:45 64° 286° (WNW) 05:04:13 437.375
VERMONT LUNAR 01 Apr 04:56:17 04:59:27 41° 160° (SSE) 05:02:38 437.305
CUBESAT XI-V 01 Apr 05:07:53 05:08:23 10° 62° (ENE) 05:09:11 437.345
ITAMSAT 1 01 Apr 05:18:10 05:19:34 11° 301° (WNW) 05:20:40 435.822/435.867
ISS 01 Apr 05:24:14 05:27:05 28° 225° (SW) 05:29:54 145.825
STRAND 1 01 Apr 05:26:47 05:27:40 11° 59° (ENE) 05:28:51 437.568
AIST 1 01 Apr 05:33:49 05:36:21 14° 292° (WNW) 05:38:42
AO-7 01 Apr 05:34:59 05:43:19 83° 289° (WNW) 05:51:37 29.400- 29.500
JAS-2 01 Apr 05:44:49 05:52:29 67° 288° (WNW) 05:59:25 435.910
RS-15 01 Apr 05:45:00 05:55:26 39° 251° (WSW) 06:05:58 29.354- 29.394
GONETS M04 01 Apr 05:57:21 06:05:36 43° 73° (ENE) 06:13:57
AUBIESAT-1 01 Apr 05:58:44 06:02:34 38° 259° (WSW) 06:06:43 437.475
PHONESAT 2.4 01 Apr 06:00:58 06:04:24 49° 162° (SSE) 06:07:49 2401.200-2431.200
PRISM 01 Apr 06:15:03 06:18:57 38° 71° (ENE) 06:22:54 437.425
CUTE-I 01 Apr 06:18:56 06:22:47 21° 92° (E) 06:26:47 437.470
Cubesat XI-IV 01 Apr 06:19:58 06:23:54 21° 92° (E) 06:27:59 437.490
MOZHAYETS 4 01 Apr 06:26:24 06:27:42 11° 273° (W) 06:28:42
M-CUBED/EXP-1 PRIME 01 Apr 06:27:10 06:30:00 17° 265° (W) 06:32:51 437.505
VERMONT LUNAR 01 Apr 06:33:40 06:37:01 86° 180° (S) 06:40:23 437.305
CUBESAT XI-V 01 Apr 06:40:29 06:45:12 89° 261° (W) 06:49:57 437.345
STRAND 1 01 Apr 07:00:59 07:06:08 81° 75° (ENE) 07:11:19 437.568
CUSAT 1 01 Apr 07:04:36 07:08:38 30° 76° (ENE) 07:13:51 437.405
AO-7 01 Apr 07:29:28 07:35:05 20° 308° (NW) 07:40:20 29.400- 29.500
JAS-2 01 Apr 07:32:17 07:36:08 14° 307° (NW) 07:39:28 435.910
PHONESAT 2.4 01 Apr 07:39:07 07:42:39 88° 187° (S) 07:46:11 2401.200-2431.200
PRISM 01 Apr 07:51:43 07:54:37 17° 268° (W) 07:57:24 437.425
GONETS M04 01 Apr 07:54:19 08:02:29 42° 272° (W) 08:10:30
CUTE-I 01 Apr 07:58:04 08:03:12 49° 289° (WNW) 08:08:16 437.470
Cubesat XI-IV 01 Apr 07:59:12 08:04:18 47° 289° (WNW) 08:09:22 437.490
BRITE-PL 01 Apr 08:07:19 08:08:19 11° 89° (E) 08:09:37 437.365/2234.400
HO-68 01 Apr 08:07:51 08:10:13 12° 85° (E) 08:13:08 435.675
VERMONT LUNAR 01 Apr 08:11:21 08:14:40 63° 193° (SSW) 08:18:00 437.305
DANDE 01 Apr 08:12:11 08:16:31 83° 261° (W) 08:22:25 436.750
GOMX 1 01 Apr 08:37:08 08:39:48 16° 92° (E) 08:42:43 467.674
CANX-2 01 Apr 08:38:31 08:40:51 15° 90° (E) 08:43:21 2200.000
STRAND 1 01 Apr 08:44:15 08:46:05 11° 273° (W) 08:47:33 437.568
CUSAT 1 01 Apr 08:47:11 08:51:24 31° 264° (W) 08:56:38 437.405
CUTE 1.7 + AOD 2 01 Apr 08:51:28 08:54:26 18° 92° (E) 08:57:32 437.475
BEESAT 3 01 Apr 09:01:42 09:04:47 21° 113° (ESE) 09:07:59 437.485
AAUSAT CUBESAT 2 01 Apr 09:04:38 09:06:59 15° 90° (E) 09:09:30 437.432
CINEMA 3 01 Apr 09:06:44 09:08:17 12° 89° (E) 09:10:08 145.822/145.860
SEEDS 01 Apr 09:15:34 09:19:16 28° 95° (E) 09:23:00 437.485
PHONESAT 2.4 01 Apr 09:17:28 09:20:56 56° 196° (SSW) 09:24:24 2401.200-2431.200
COMPASS 1 01 Apr 09:33:07 09:37:03 36° 97° (E) 09:40:59 437.405
BRITE-PL 01 Apr 09:43:07 09:47:19 62° 285° (WNW) 09:51:43 437.365/2234.400
DOVE 4 01 Apr 09:47:43 09:52:05 64° 101° (E) 09:56:42 437.250
VERMONT LUNAR 01 Apr 09:49:30 09:52:01 19° 208° (SSW) 09:54:30 437.305
HO-68 01 Apr 09:52:02 09:59:16 77° 104° (ESE) 10:06:28 435.675
Oscar 11 01 Apr 09:52:15 09:55:47 24° 94° (E) 09:59:22 145.826/435.025
UNISAT 6 01 Apr 09:52:24 09:55:41 22° 68° (ENE) 09:59:05 437.425
QB50P1 01 Apr 09:54:53 09:56:25 12° 64° (ENE) 09:58:09 145.935-145.965
DUCHIFAT 1 01 Apr 09:55:01 09:56:25 12° 64° (ENE) 09:58:01 145.980
AIST 2 01 Apr 09:57:59 10:01:28 25° 113° (ESE) 10:05:01 435.215
DELFI C3 01 Apr 09:59:40 10:02:48 21° 93° (E) 10:06:00 145.870
TIGRISAT 01 Apr 10:00:52 10:04:23 26° 69° (ENE) 10:08:03 435.000
BEESAT 2 01 Apr 10:05:04 10:09:11 88° 122° (ESE) 10:13:22 435.950
FUNcube-1 01 Apr 10:09:10 10:12:21 20° 92° (E) 10:15:43 145.935
QB50P2 01 Apr 10:09:28 10:12:15 18° 67° (ENE) 10:15:09 145.880/145.840
CANX-2 01 Apr 10:12:56 10:17:07 48° 287° (WNW) 10:21:16 2200.000
GOMX 1 01 Apr 10:14:04 10:18:12 44° 286° (WNW) 10:22:31 467.674
BUGSAT 1 01 Apr 10:20:14 10:22:42 16° 67° (ENE) 10:25:18 437.445
UWE-3 01 Apr 10:21:06 10:25:09 33° 97° (E) 10:29:18 435.000/436.395/437.385
ZACube-1 01 Apr 10:22:49 10:26:38 28° 95° (E) 10:30:32 437.345
CUTE 1.7 + AOD 2 01 Apr 10:26:32 10:30:32 37° 288° (WNW) 10:34:30 437.475
ANTELSAT 01 Apr 10:32:04 10:36:16 60° 74° (ENE) 10:40:33 437.575/2403.000
CUBEBUG 2 01 Apr 10:32:29 10:36:54 55° 100° (E) 10:41:26 437.445
VELOX 1 01 Apr 10:33:29 10:33:57 10° 88° (E) 10:34:42 145.980
POPSAT HIP 1 01 Apr 10:36:24 10:40:10 33° 71° (ENE) 10:43:59 437.405
AISAT 01 Apr 10:38:20 10:40:09 13° 89° (E) 10:42:12 437.250
BEESAT 3 01 Apr 10:38:51 10:42:39 35° 309° (NW) 10:46:29 437.485
AAUSAT CUBESAT 2 01 Apr 10:38:51 10:42:55 45° 287° (WNW) 10:46:57 437.432
CINEMA 3 01 Apr 10:41:30 10:45:56 65° 285° (WNW) 10:50:34 145.822/145.860
NANOSAT C BR1 01 Apr 10:45:26 10:49:23 42° 72° (ENE) 10:53:23 145.865
HUMSAT D 01 Apr 10:48:53 10:52:28 26° 95° (E) 10:56:09 437.325/437.525
SEEDS 01 Apr 10:51:28 10:55:00 25° 291° (WNW) 10:58:26 437.485
POLYITAN 1 01 Apr 10:52:28 10:56:32 52° 73° (ENE) 11:00:39 437.675
PHONESAT 2.4 01 Apr 10:56:28 10:58:52 17° 210° (SSW) 11:01:13 2401.200-2431.200
50 SAT 01 Apr 10:59:01 11:02:06 21° 93° (E) 11:05:16 437.505
UKube-1 01 Apr 10:59:26 11:03:36 46° 99° (E) 11:07:46 .
COMPASS 1 01 Apr 11:09:25 11:12:31 20° 292° (WNW) 11:15:31 437.405
DX 1 01 Apr 11:13:48 11:18:09 72° 102° (ESE) 11:22:27 434.975-435.025
ESTCUBE 1 01 Apr 11:17:36 11:20:36 18° 91° (E) 11:23:43 437.505/2401.250
DOVE 4 01 Apr 11:27:27 11:29:30 13° 294° (WNW) 11:31:22 437.250
DUCHIFAT 1 01 Apr 11:27:37 11:31:48 63° 259° (W) 11:35:58 145.980
QB50P1 01 Apr 11:27:40 11:31:50 62° 259° (W) 11:36:01 145.935-145.965
Oscar 11 01 Apr 11:28:10 11:31:59 29° 290° (WNW) 11:35:45 145.826/435.025
UNISAT 6 01 Apr 11:28:30 11:32:20 31° 264° (W) 11:36:12 437.425
DELFI C3 01 Apr 11:34:25 11:38:01 29° 289° (WNW) 11:41:33 145.870
AIST 2 01 Apr 11:36:03 11:39:57 33° 310° (NW) 11:43:51 435.215
TIGRISAT 01 Apr 11:37:30 11:41:07 26° 265° (W) 11:44:44 435.000
HO-68 01 Apr 11:41:02 11:46:20 22° 302° (WNW) 11:51:24 435.675
QB50P2 01 Apr 11:43:56 11:47:54 39° 262° (W) 11:51:53 145.880/145.840
FUNcube-1 01 Apr 11:44:45 11:48:51 37° 288° (WNW) 11:52:58 145.935
BEESAT 2 01 Apr 11:46:05 11:47:59 13° 321° (NW) 11:49:47 435.950
BUGSAT 1 01 Apr 11:53:57 11:57:54 42° 261° (W) 12:01:50 437.445
CUBEBUG 1 01 Apr 11:57:24 12:01:30 41° 98° (E) 12:05:36 437.445
UWE-3 01 Apr 11:57:59 12:01:33 23° 291° (WNW) 12:05:04 435.000/436.395/437.385
ZACube-1 01 Apr 11:59:11 12:02:56 27° 290° (WNW) 12:06:40 437.345
Oscar 19 01 Apr 12:05:03 12:06:54 12° 61° (ENE) 12:09:01 437.125/150
VELOX 1 01 Apr 12:06:42 12:11:06 70° 286° (WNW) 12:15:28 145.980
CUBEBUG 2 01 Apr 12:10:35 12:13:14 15° 294° (WNW) 12:15:47 437.445
ANTELSAT 01 Apr 12:12:03 12:13:35 11° 272° (W) 12:14:53 437.575/2403.000
AISAT 01 Apr 12:12:52 12:17:12 57° 286° (WNW) 12:21:31 437.250
POPSAT HIP 1 01 Apr 12:13:00 12:16:10 20° 267° (W) 12:19:14 437.405
NANOSAT C BR1 01 Apr 12:22:50 12:25:30 16° 269° (W) 12:28:00 145.865
HUMSAT D 01 Apr 12:24:35 12:28:12 26° 290° (WNW) 12:31:46 437.325/437.525
POLYITAN 1 01 Apr 12:30:49 12:32:51 13° 270° (W) 12:34:40 437.675
50 SAT 01 Apr 12:33:30 12:37:02 29° 289° (WNW) 12:40:32 437.505
UKube-1 01 Apr 12:36:39 12:39:25 16° 295° (WNW) 12:42:02 .
YUBILEINY 01 Apr 12:44:43 12:51:58 31° 85° (E) 12:59:30 435.215
O/OREOS (USA 219) 01 Apr 12:50:58 12:54:45 26° 58° (ENE) 12:58:35 437.305
DX 1 01 Apr 12:52:30 12:53:52 11° 297° (WNW) 12:55:02 434.975-435.025
ESTCUBE 1 01 Apr 12:53:27 12:57:44 42° 288° (WNW) 13:01:57 437.505/2401.250
TISAT 1 01 Apr 13:07:16 13:11:24 53° 100° (E) 13:15:30 437.305
ITAMSAT 1 01 Apr 13:15:55 13:19:25 19° 64° (ENE) 13:23:07 435.822/435.867
PCSat 01 Apr 13:27:03 13:31:12 24° 108° (ESE) 13:35:31 145.827
SPROUT 01 Apr 13:29:41 13:33:58 69° 285° (WNW) 13:38:12 437.525
CUBEBUG 1 01 Apr 13:34:38 13:37:36 18° 294° (WNW) 13:40:25 437.445
Oscar 19 01 Apr 13:40:29 13:45:37 87° 256° (WSW) 13:50:47 437.125/150
SWISSCUBE 01 Apr 13:48:10 13:52:04 25° 94° (E) 13:56:02 437.505
BEESAT 01 Apr 13:50:34 13:54:26 24° 94° (E) 13:58:21 436.000
AIST 1 01 Apr 14:03:28 14:05:06 12° 67° (ENE) 14:06:57
JAS-2 01 Apr 14:15:39 14:18:08 12° 52° (NE) 14:21:07 435.910
HORYU 2 01 Apr 14:19:58 14:21:28 12° 63° (ENE) 14:23:12 437.375
Gurwin Techsat 1B 01 Apr 14:22:15 14:27:27 61° 73° (ENE) 14:32:43 435.225
O/OREOS (USA 219) 01 Apr 14:30:12 14:34:13 31° 255° (WSW) 14:38:09 437.305
ITUPSAT 1 01 Apr 14:38:57 14:43:46 76° 103° (ESE) 14:48:33 437.325
YUBILEINY 01 Apr 14:39:45 14:48:24 57° 284° (WNW) 14:57:04 435.215
AO-7 01 Apr 14:42:41 14:49:27 30° 58° (ENE) 14:56:25 29.400- 29.500
KKS-1 01 Apr 14:42:52 14:45:23 15° 91° (E) 14:48:05 437.445
TISAT 1 01 Apr 14:44:37 14:46:48 14° 295° (WNW) 14:48:49 437.305
ITAMSAT 1 01 Apr 14:53:26 14:58:33 56° 259° (W) 15:03:41 435.822/435.867
STARS 01 Apr 15:06:38 15:09:30 17° 92° (E) 15:12:32 437.465
PCSat 01 Apr 15:09:07 15:14:21 48° 305° (NW) 15:19:37 145.827
SWISSCUBE 01 Apr 15:25:41 15:30:01 34° 290° (WNW) 15:34:15 437.505
BEESAT 01 Apr 15:28:01 15:32:22 35° 290° (WNW) 15:36:38 436.000
AIST 1 01 Apr 15:39:01 15:43:15 55° 266° (W) 15:47:24
HORYU 2 01 Apr 15:53:11 15:57:36 71° 258° (WSW) 16:02:04 437.375
JAS-2 01 Apr 15:54:44 16:01:37 58° 70° (ENE) 16:09:12 435.910
Gurwin Techsat 1B 01 Apr 16:04:30 16:07:56 17° 271° (W) 16:11:08 435.225
KKS-1 01 Apr 16:18:03 16:22:21 49° 287° (WNW) 16:26:38 437.445
ITUPSAT 1 01 Apr 16:18:56 16:21:06 13° 298° (WNW) 16:23:02 437.325
AO-7 01 Apr 16:33:32 16:41:46 65° 256° (WSW) 16:50:01 29.400- 29.500
MOZHAYETS 4 01 Apr 16:41:49 16:44:53 18° 91° (E) 16:48:06
STARS 01 Apr 16:42:03 16:46:12 42° 289° (WNW) 16:50:21 437.465
YUBILEINY 01 Apr 16:46:12 16:47:51 10° 309° (NW) 16:48:45 435.215
SO-50 01 Apr 17:16:35 17:19:12 15° 110° (ESE) 17:22:03 436.795
BEESAT 3 01 Apr 17:20:52 17:23:22 16° 42° (NE) 17:25:57 437.485
CUTE-I 01 Apr 17:40:18 17:45:03 34° 68° (ENE) 17:49:53 437.470
AUBIESAT-1 01 Apr 17:40:51 17:44:07 19° 95° (E) 17:47:27 437.475
JAS-2 01 Apr 17:41:10 17:47:10 28° 271° (W) 17:53:27 435.910
Cubesat XI-IV 01 Apr 17:41:30 17:46:18 35° 69° (ENE) 17:51:10 437.490
RS-15 01 Apr 17:56:25 18:05:57 39° 109° (ESE) 18:15:49 29.354- 29.394
M-CUBED/EXP-1 PRIME 01 Apr 18:07:28 18:12:00 39° 101° (ESE) 18:16:24 437.505
MOZHAYETS 4 01 Apr 18:17:57 18:22:24 45° 288° (WNW) 18:26:47
AIST 2 01 Apr 18:19:57 18:22:59 19° 43° (NE) 18:26:03 435.215
BEESAT 2 01 Apr 18:24:55 18:28:57 49° 54° (NE) 18:32:56 435.950
AO-7 01 Apr 18:34:56 18:36:26 10° 277° (W) 18:37:06 29.400- 29.500
CUBESAT XI-V 01 Apr 18:38:16 18:41:54 23° 93° (E) 18:45:35 437.345
HO-68 01 Apr 18:39:05 18:40:30 11° 50° (NE) 18:42:21 435.675
SO-50 01 Apr 18:54:41 18:59:16 60° 306° (NW) 19:04:02 436.795
BEESAT 3 01 Apr 18:57:47 19:01:52 62° 241° (WSW) 19:05:51 437.485
GONETS M04 01 Apr 18:57:57 19:06:08 49° 90° (E) 19:14:28
STRAND 1 01 Apr 19:12:22 19:16:39 27° 94° (E) 19:21:01 437.568
BRITE-PL 01 Apr 19:18:02 19:20:16 14° 67° (ENE) 19:22:37 437.365/2234.400
